DEACY EDMA-EDMA

Flight info

Callsign DEACY
Flight time 0h 38m
Altitude 5000
Route RIDAR7G RIDAR Z98 WLD DCT
Aircraft SR22/L-SDGRY/SB2

Departure

Time 2026-05-04 20:33
Airport Augsburg Airport (EDMA)

Arrival

Time 2026-05-04 21:12
Airport Augsburg Airport (EDMA)
Time Latitude Longitude Altitude Speed Heading
2026-05-04 20:22 48.42033 10.92503 1514 ft 0 kts 253°
2026-05-04 20:24 48.42040 10.92489 1514 ft 5 kts 345°
2026-05-04 20:24 48.42099 10.92471 1513 ft 12 kts 349°
2026-05-04 20:24 48.42202 10.92439 1512 ft 16 kts 340°
2026-05-04 20:25 48.42269 10.92399 1511 ft 6 kts
2026-05-04 20:25 48.42295 10.92458 1512 ft 8 kts 72°
2026-05-04 20:25 48.42318 10.92559 1512 ft 11 kts 72°
2026-05-04 20:25 48.42348 10.92704 1511 ft 17 kts 72°
2026-05-04 20:26 48.42387 10.92877 1512 ft 17 kts 71°
2026-05-04 20:26 48.42427 10.93058 1513 ft 19 kts 72°
2026-05-04 20:26 48.42470 10.93251 1514 ft 18 kts 70°
2026-05-04 20:26 48.42510 10.93427 1514 ft 17 kts 69°
2026-05-04 20:27 48.42551 10.93600 1513 ft 17 kts 70°
2026-05-04 20:27 48.42588 10.93776 1513 ft 17 kts 72°
2026-05-04 20:27 48.42620 10.93922 1512 ft 10 kts 72°
2026-05-04 20:27 48.42635 10.94004 1512 ft 5 kts 68°
2026-05-04 20:28 48.42645 10.94014 1512 ft 0 kts 346°
2026-05-04 20:32 48.42648 10.94013 1512 ft 2 kts 349°
2026-05-04 20:32 48.42689 10.93996 1511 ft 8 kts 336°
2026-05-04 20:32 48.42682 10.93900 1511 ft 23 kts 247°
2026-05-04 20:32 48.42575 10.93416 1513 ft 75 kts 251°
2026-05-04 20:33 48.42376 10.92517 1634 ft 99 kts 250°
2026-05-04 20:33 48.42173 10.91495 1868 ft 106 kts 252°
2026-05-04 20:33 48.41935 10.90409 2100 ft 113 kts 248°
2026-05-04 20:33 48.41667 10.89282 2376 ft 115 kts 249°
2026-05-04 20:34 48.41404 10.88143 2663 ft 116 kts 249°
2026-05-04 20:34 48.41182 10.86990 2930 ft 117 kts 266°
2026-05-04 20:34 48.41439 10.85852 3193 ft 117 kts 311°
2026-05-04 20:34 48.42014 10.84993 3426 ft 121 kts 320°
2026-05-04 20:35 48.42692 10.84148 3585 ft 130 kts 323°
2026-05-04 20:35 48.43416 10.83309 3809 ft 131 kts 329°
2026-05-04 20:35 48.44272 10.82978 4039 ft 128 kts
2026-05-04 20:35 48.45153 10.83109 4278 ft 127 kts 11°
2026-05-04 20:36 48.46026 10.83365 4502 ft 128 kts 14°
2026-05-04 20:36 48.46899 10.83651 4717 ft 129 kts 14°
2026-05-04 20:36 48.47771 10.83926 4924 ft 130 kts 13°
2026-05-04 20:36 48.48698 10.84210 5002 ft 142 kts 13°
2026-05-04 20:37 48.49714 10.84517 5006 ft 155 kts 13°
2026-05-04 20:37 48.50808 10.84843 5003 ft 163 kts 13°
2026-05-04 20:37 48.51924 10.85149 4995 ft 166 kts
2026-05-04 20:37 48.53068 10.84878 4991 ft 170 kts 340°
2026-05-04 20:38 48.54144 10.84114 4995 ft 170 kts 335°
2026-05-04 20:38 48.55188 10.83312 4993 ft 164 kts 337°
2026-05-04 20:38 48.56307 10.82980 4992 ft 164 kts
2026-05-04 20:38 48.57403 10.83417 4993 ft 163 kts 30°
2026-05-04 20:39 48.58234 10.84541 4992 ft 161 kts 57°
2026-05-04 20:39 48.58635 10.86070 4990 ft 159 kts 82°
2026-05-04 20:39 48.58665 10.87739 4994 ft 158 kts 92°
2026-05-04 20:39 48.58622 10.89413 4994 ft 159 kts 94°
2026-05-04 20:40 48.58564 10.91065 4993 ft 160 kts 94°
2026-05-04 20:40 48.58510 10.92744 4994 ft 161 kts 94°
2026-05-04 20:40 48.58459 10.94429 4993 ft 162 kts 93°
2026-05-04 20:40 48.58409 10.96141 4994 ft 163 kts 93°
2026-05-04 20:41 48.58360 10.97853 4995 ft 164 kts 93°
2026-05-04 20:41 48.58309 10.99593 4995 ft 164 kts 93°
2026-05-04 20:41 48.58258 11.01304 4994 ft 164 kts 93°
2026-05-04 20:41 48.58209 11.03007 4993 ft 163 kts 93°
2026-05-04 20:42 48.58160 11.04724 4992 ft 163 kts 93°
2026-05-04 20:42 48.58113 11.06425 4993 ft 163 kts 93°
2026-05-04 20:42 48.58065 11.08129 4994 ft 162 kts 93°
2026-05-04 20:42 48.58017 11.09838 4994 ft 162 kts 93°
2026-05-04 20:43 48.57969 11.11543 4992 ft 162 kts 93°
2026-05-04 20:43 48.57705 11.13166 4981 ft 162 kts 124°
2026-05-04 20:43 48.56776 11.14032 4985 ft 163 kts 169°
2026-05-04 20:43 48.55701 11.13626 4983 ft 160 kts 216°
2026-05-04 20:44 48.55180 11.12251 4984 ft 153 kts 262°
2026-05-04 20:44 48.55458 11.10776 4985 ft 147 kts 308°
2026-05-04 20:44 48.56157 11.09675 4989 ft 143 kts 316°
2026-05-04 20:44 48.56882 11.08666 4988 ft 140 kts 317°
2026-05-04 20:45 48.57589 11.07675 4988 ft 138 kts 316°
2026-05-04 20:45 48.58278 11.06681 4990 ft 136 kts 316°
2026-05-04 20:45 48.59035 11.05846 4986 ft 134 kts 343°
2026-05-04 20:45 48.59927 11.05870 4991 ft 130 kts 22°
2026-05-04 20:46 48.60593 11.06727 4991 ft 126 kts 63°
2026-05-04 20:46 48.60727 11.07995 4991 ft 124 kts 102°
2026-05-04 20:46 48.60319 11.09115 4993 ft 123 kts 130°
2026-05-04 20:46 48.59752 11.10081 4992 ft 123 kts 133°
2026-05-04 20:47 48.59153 11.11018 4991 ft 124 kts 133°
2026-05-04 20:47 48.58555 11.11962 4989 ft 124 kts 133°
2026-05-04 20:47 48.57914 11.12816 4980 ft 125 kts 150°
2026-05-04 20:47 48.57055 11.13242 4872 ft 135 kts 163°
2026-05-04 20:48 48.56127 11.13544 4774 ft 140 kts 168°
2026-05-04 20:48 48.55164 11.13812 4718 ft 140 kts 167°
2026-05-04 20:48 48.54205 11.14088 4675 ft 140 kts 167°
2026-05-04 20:48 48.53244 11.14372 4588 ft 143 kts 167°
2026-05-04 20:49 48.52231 11.14676 4336 ft 155 kts 167°
2026-05-04 20:49 48.51172 11.14993 4179 ft 157 kts 166°
2026-05-04 20:49 48.50095 11.15319 4067 ft 156 kts 166°
2026-05-04 20:49 48.49044 11.15629 3988 ft 153 kts 170°
2026-05-04 20:50 48.48018 11.15367 3979 ft 149 kts 205°
2026-05-04 20:50 48.47255 11.14363 3975 ft 146 kts 242°
2026-05-04 20:50 48.47156 11.12913 3980 ft 141 kts 286°
2026-05-04 20:50 48.47286 11.11486 3976 ft 138 kts 259°
2026-05-04 20:51 48.47031 11.10105 3980 ft 136 kts 244°
2026-05-04 20:51 48.46556 11.08871 3920 ft 140 kts 241°
2026-05-04 20:51 48.45970 11.07630 3693 ft 150 kts 236°
2026-05-04 20:51 48.45494 11.06209 3459 ft 156 kts 245°
2026-05-04 20:52 48.45101 11.04664 3211 ft 160 kts 250°
2026-05-04 20:52 48.44738 11.03078 2961 ft 161 kts 252°
2026-05-04 20:52 48.44398 11.01548 2711 ft 147 kts 252°
2026-05-04 20:52 48.44086 11.00155 2490 ft 133 kts 252°
2026-05-04 20:53 48.43807 10.98910 2293 ft 121 kts 252°
2026-05-04 20:53 48.43548 10.97751 2113 ft 111 kts 252°
2026-05-04 20:53 48.43316 10.96714 1982 ft 100 kts 252°
2026-05-04 20:53 48.43084 10.95672 1823 ft 108 kts 252°
2026-05-04 20:54 48.42849 10.94618 1652 ft 104 kts 253°
2026-05-04 20:54 48.42625 10.93633 1520 ft 91 kts 252°
2026-05-04 20:54 48.42440 10.92802 1535 ft 87 kts 250°
2026-05-04 20:54 48.42228 10.91873 1727 ft 103 kts 251°
2026-05-04 20:55 48.41992 10.90822 1992 ft 110 kts 251°
2026-05-04 20:55 48.41745 10.89703 2270 ft 115 kts 251°
2026-05-04 20:55 48.41491 10.88555 2565 ft 117 kts 251°
2026-05-04 20:55 48.41237 10.87412 2863 ft 118 kts 251°
2026-05-04 20:56 48.41121 10.86211 3151 ft 117 kts 285°
2026-05-04 20:56 48.41557 10.85224 3445 ft 114 kts 320°
2026-05-04 20:56 48.42195 10.84476 3651 ft 122 kts 327°
2026-05-04 20:56 48.42911 10.83738 3850 ft 129 kts 327°
2026-05-04 20:57 48.43693 10.83048 4086 ft 130 kts 346°
2026-05-04 20:57 48.44580 10.82994 4339 ft 128 kts
2026-05-04 20:57 48.45448 10.83205 4575 ft 127 kts 13°
2026-05-04 20:57 48.46318 10.83482 4787 ft 128 kts 14°
2026-05-04 20:58 48.47194 10.83759 4965 ft 132 kts 14°
2026-05-04 20:58 48.48148 10.84053 4995 ft 146 kts 13°
2026-05-04 20:58 48.49187 10.84368 4995 ft 157 kts 13°
2026-05-04 20:58 48.50275 10.84693 4992 ft 164 kts 13°
2026-05-04 20:59 48.51419 10.85032 4990 ft 170 kts 13°
2026-05-04 20:59 48.52610 10.85094 4977 ft 175 kts 351°
2026-05-04 20:59 48.53742 10.84406 4984 ft 177 kts 335°
2026-05-04 20:59 48.54849 10.83579 4984 ft 178 kts 334°
2026-05-04 21:00 48.56034 10.83076 4980 ft 176 kts 359°
2026-05-04 21:00 48.57201 10.83416 4981 ft 171 kts 25°
2026-05-04 21:00 48.58119 10.84497 4980 ft 167 kts 53°
2026-05-04 21:00 48.58599 10.86060 4980 ft 164 kts 79°
2026-05-04 21:01 48.58682 10.87755 4984 ft 162 kts 91°
2026-05-04 21:01 48.58636 10.89458 4983 ft 162 kts 97°
2026-05-04 21:01 48.58201 10.90988 4987 ft 161 kts 120°
2026-05-04 21:01 48.57919 10.92598 4981 ft 160 kts 93°
2026-05-04 21:02 48.57859 10.94279 4985 ft 160 kts 92°
2026-05-04 21:02 48.57816 10.95952 4986 ft 161 kts 92°
2026-05-04 21:02 48.57787 10.97639 4986 ft 161 kts 91°
2026-05-04 21:02 48.57800 10.99333 4984 ft 161 kts 89°
2026-05-04 21:03 48.57825 11.01025 4986 ft 161 kts 90°
2026-05-04 21:03 48.57845 11.02726 4987 ft 162 kts 90°
2026-05-04 21:03 48.57862 11.04415 4985 ft 162 kts 90°
2026-05-04 21:03 48.57876 11.06108 4985 ft 162 kts 90°
2026-05-04 21:04 48.57890 11.07827 4985 ft 162 kts 90°
2026-05-04 21:04 48.57903 11.09520 4986 ft 162 kts 90°
2026-05-04 21:04 48.57798 11.11209 4982 ft 162 kts 108°
2026-05-04 21:04 48.57206 11.12599 4982 ft 153 kts 137°
2026-05-04 21:05 48.56318 11.13399 4814 ft 148 kts 161°
2026-05-04 21:05 48.55330 11.13773 4673 ft 143 kts 166°
2026-05-04 21:05 48.54364 11.14058 4572 ft 141 kts 167°
2026-05-04 21:05 48.53411 11.14333 4472 ft 139 kts 167°
2026-05-04 21:06 48.52456 11.14614 4371 ft 139 kts 167°
2026-05-04 21:06 48.51517 11.14894 4271 ft 138 kts 166°
2026-05-04 21:06 48.50572 11.15179 4171 ft 138 kts 166°
2026-05-04 21:06 48.49633 11.15463 4070 ft 137 kts 167°
2026-05-04 21:07 48.48679 11.15446 3994 ft 137 kts 191°
2026-05-04 21:07 48.47831 11.14882 3970 ft 134 kts 212°
2026-05-04 21:07 48.47207 11.13833 3845 ft 138 kts 245°
2026-05-04 21:07 48.46847 11.12483 3730 ft 140 kts 250°
2026-05-04 21:08 48.46528 11.11101 3614 ft 142 kts 252°
2026-05-04 21:08 48.46212 11.09689 3506 ft 142 kts 252°
2026-05-04 21:08 48.45905 11.08313 3487 ft 136 kts 252°
2026-05-04 21:08 48.45611 11.06988 3483 ft 128 kts 252°
2026-05-04 21:09 48.45336 11.05754 3325 ft 123 kts 253°
2026-05-04 21:09 48.45064 11.04534 3147 ft 122 kts 252°
2026-05-04 21:09 48.44796 11.03327 2973 ft 121 kts 252°
2026-05-04 21:09 48.44535 11.02142 2800 ft 120 kts 251°
2026-05-04 21:10 48.44264 11.00944 2618 ft 121 kts 252°
2026-05-04 21:10 48.43994 10.99741 2436 ft 121 kts 253°
2026-05-04 21:10 48.43731 10.98561 2252 ft 118 kts 253°
2026-05-04 21:10 48.43477 10.97435 2101 ft 109 kts 252°
2026-05-04 21:11 48.43240 10.96368 1924 ft 107 kts 252°
2026-05-04 21:11 48.43006 10.95326 1760 ft 105 kts 252°
2026-05-04 21:11 48.42776 10.94303 1587 ft 100 kts 253°
2026-05-04 21:11 48.42570 10.93387 1519 ft 82 kts 253°
2026-05-04 21:12 48.42407 10.92656 1511 ft 65 kts 251°
2026-05-04 21:12 48.42331 10.92303 1512 ft 15 kts 255°
2026-05-04 21:12 48.42314 10.92252 1512 ft 6 kts 60°
2026-05-04 21:12 48.42333 10.92335 1512 ft 9 kts 71°
2026-05-04 21:13 48.42310 10.92384 1512 ft 6 kts 165°
2026-05-04 21:13 48.42256 10.92407 1512 ft 7 kts 176°
2026-05-04 21:13 48.42223 10.92422 1512 ft 5 kts 159°
2026-05-04 21:13 48.42173 10.92449 1512 ft 8 kts 160°
2026-05-04 21:14 48.42145 10.92422 1512 ft 5 kts 249°
2026-05-04 21:14 48.42149 10.92416 1512 ft 0 kts 72°
2026-05-04 21:14 48.42149 10.92417 1512 ft 0 kts 70°